Time,TemperatureF,DewpointF,PressureIn,WindDirection,WindDirectionDegrees,WindSpeedMPH,WindSpeedGustMPH,Humidity,HourlyPrecipIn,Conditions,Clouds,dailyrainin,SoftwareType,DateUTC
2013-07-28 00:00:00,49.0,45.0,-100.00,North,-999,-999.0,-999.0,85,-99.99,,,0.00,,2013-07-28 07:00:00,
2013-07-28 01:00:00,49.0,43.0,-100.00,North,0,2.0,2.0,81,-99.99,,,0.00,,2013-07-28 08:00:00,
2013-07-28 01:53:00,49.0,43.0,-100.00,North,0,2.0,2.0,81,-99.99,,,0.00,,2013-07-28 08:53:00,
2013-07-28 02:00:00,49.0,44.0,-100.00,NE,56,1.0,2.0,83,-99.99,,,0.00,,2013-07-28 09:00:00,
2013-07-28 03:00:00,48.0,43.0,-100.00,NE,34,1.0,3.0,82,-99.99,,,0.00,,2013-07-28 10:00:00,
2013-07-28 04:00:00,48.0,43.0,-100.00,NE,51,1.0,3.0,83,-99.99,,,0.00,,2013-07-28 11:00:00,
2013-07-28 04:54:00,48.0,43.0,-100.00,NE,51,1.0,3.0,83,-99.99,,,0.00,,2013-07-28 11:54:00,
2013-07-28 05:00:00,49.0,43.0,-100.00,ENE,58,2.0,3.0,82,-99.99,,,0.00,,2013-07-28 12:00:00,
2013-07-28 06:00:00,48.0,43.0,-100.00,NNE,25,2.0,3.0,81,-99.99,,,0.00,,2013-07-28 13:00:00,
2013-07-28 07:00:00,50.0,44.0,-100.00,NE,54,2.0,3.0,80,-99.99,,,0.00,,2013-07-28 14:00:00,
2013-07-28 09:00:00,52.0,45.0,-100.00,North,1,2.0,4.0,77,-99.99,,,0.00,,2013-07-28 16:00:00,
2013-07-28 10:00:00,54.0,47.0,-100.00,NE,34,2.0,4.0,76,-99.99,,,0.00,,2013-07-28 17:00:00,
2013-07-28 11:00:00,55.0,47.0,-100.00,NE,38,2.0,4.0,74,-99.99,,,0.01,,2013-07-28 18:00:00,
2013-07-28 11:52:00,55.0,47.0,-100.00,NE,38,2.0,4.0,74,-99.99,,,0.01,,2013-07-28 18:52:00,
2013-07-28 12:00:00,55.0,46.0,-100.00,ENE,63,2.0,4.0,72,-99.99,,,0.00,,2013-07-28 19:00:00,
2013-07-28 12:52:00,55.0,46.0,-100.00,ENE,63,2.0,4.0,72,-99.99,,,0.00,,2013-07-28 19:52:00,
2013-07-28 13:00:00,55.0,47.0,-100.00,North,355,2.0,5.0,74,-99.99,,,0.00,,2013-07-28 20:00:00,
2013-07-28 13:53:00,55.0,47.0,-100.00,North,355,2.0,5.0,74,-99.99,,,0.00,,2013-07-28 20:53:00,
2013-07-28 14:00:00,56.0,47.0,-100.00,NE,48,1.0,4.0,70,-99.99,,,0.00,,2013-07-28 21:00:00,
2013-07-28 15:00:00,55.0,46.0,-100.00,SE,131,1.0,3.0,71,-99.99,,,-99.99,,2013-07-28 22:00:00,
2013-07-28 16:00:00,56.0,49.0,-100.00,SW,235,1.0,2.0,77,-99.99,,,0.00,,2013-07-28 23:00:00,
2013-07-28 17:00:00,53.0,46.0,-100.00,West,279,1.0,2.0,77,-99.99,,,0.00,,2013-07-29 00:00:00,
2013-07-28 18:00:00,51.0,48.0,-100.00,NE,49,1.0,3.0,87,-99.99,,,0.00,,2013-07-29 01:00:00,
2013-07-28 19:00:00,51.0,48.0,-100.00,NNE,33,1.0,3.0,90,-99.99,,,0.00,,2013-07-29 02:00:00,
2013-07-28 20:00:00,50.0,48.0,-100.00,NE,55,1.0,2.0,92,-99.99,,,-99.99,,2013-07-29 03:00:00,
2013-07-28 21:00:00,49.0,47.0,-100.00,North,7,1.0,3.0,95,-99.99,,,0.00,,2013-07-29 04:00:00,
2013-07-28 22:00:00,48.0,47.0,-100.00,NNE,28,1.0,3.0,97,-99.99,,,-99.99,,2013-07-29 05:00:00,
2013-07-28 22:53:00,48.0,47.0,-100.00,NNE,28,1.0,3.0,97,-99.99,,,-99.99,,2013-07-29 05:53:00,
2013-07-28 23:00:00,47.0,47.0,-100.00,NNE,21,1.0,3.0,99,-99.99,,,-99.99,,2013-07-29 06:00:00,